SCP
0 1 0 0 1 1 1 1 0 0 0 0 0 0 0 0 0 0 -0 0 0 0 0 0 0 0 0 0 0 0 0 0 0 0 0 0 0 0 0 0 0 0 0
1 1 1 1 1 1 1 1 0 0 0 0 -0 0 -0 0 0 0 0 0 0 0 0 0 0 0 0 0 0 0 0 0 0 0 0 0 0 0 0 0 0 0 0
1 1 1 1 1 1 1 0 0 0 0 0 -0 -0 -0 0 0 0 0 0 0 0 0 0 0 0 0 0 0 0 0 0 0 0 0 0 0 0 0 0 0 0 0
0 0 0 -0 -0 0 0 0 0 0 0 0 0 0 0 -0 -0 0 -0 0 0 0 0 0 0 0 0 0 0 0 0 0 0 0 0 0 0 0 0 0 0 0 0
1 0 0 -0 -0 -0 -0 0 0 0 0 0 0 0 0 0 0 0 0 0 0 0 0 0 0 0 0 0 0 0 0 0 0 0 0 0 0 0 0 0 0 0 0
1 0 0 0 0 0 -0 0 0 0 0 0 0 0 -0 -0 -0 0 0 0 0 0 0 0 0 0 0 0 0 0 0 0 0 0 0 0 0 0 0 0 0 0 0
0 0 0 -0 -0 -0 0 0 0 0 0 0 0 0 0 0 -0 0 0 0 0 -0 -0 0 -0 0 0 -0 -0 0 0 0 0 0 0 0 0 0 0 0 0 0 0
0 0 0 0 -0 0 0 0 0 0 0 0 -0 -0 0 0 -0 -0 0 0 -0 -0 0 0 -0 -0 -0 -0 0 0 0 0 0 0 0 0 0 0 0 0 0 0 0
0 0 0 0 0 0 0 0 0 0 0 0 0 0 -0 -0 -0 -0 -0 -0 0 0 0 0 -0 0 -0 -0 0 0 0 0 -0 0 0 0 -0 -0 -0 0 0 0 0
0 0 0 0 0 0 0 0 0 0 0 0 0 0 0 -0 -0 -0 0 0 0 0 -0 -0 -0 -0 -0 -0 -0 0 -0 -0 0 0 -0 0 0 -0 -0 -0 -0 -0 0
0 0 0 0 0 0 0 0 1 0 0 0 0 0 0 -0 -0 -0 -0 0 0 0 0 -0 -0 -0 -0 -0 -0 -0 -0 -0 0 0 -0 0 -0 -0 -0 -0 -0 -0 0
0 -0 0 0 0 0 0 0 0 0 0 0 0 0 -0 -0 -0 -0 0 0 0 0 0 0 -0 -0 -0 -0 -0 -0 -0 -0 -0 -0 -0 -0 0 0 0 0 0 0 0
0 0 0 0 0 0 0 0 0 0 0 -0 0 -0 -0 -0 -0 -0 -0 -0 -0 -0 0 0 -0 -0 -0 -0 -0 -0 -0 -0 -0 -0 -0 0 0 0 0 0 0 0 0
0 1 0 0 0 0 0 -0 -0 -0 0 0 -0 -0 -0 -0 -0 -0 -0 0 -0 -0 -0 -0 -0 -0 -0 -0 -0 -0 -0 -0 0 0 0 0 0 0 0 0 0 0 0
0 0 0 0 0 0 0 0 -0 0 0 0 -0 -0 -0 -0 0 -0 -0 -0 0 0 0 0 -0 -0 0 0 0 0 0 0 0 0 0 0 0 -0 0 0 0 0 0
0 0 0 0 0 0 0 0 0 -0 -0 -0 0 0 -0 0 -0 -0 -0 -0 -0 0 0 0 0 0 0 0 0 0 0 0 0 0 0 0 0 0 -0 -0 0 0 0
0 0 0 0 0 0 0 0 0 -0 -0 0 -0 0 0 0 0 0 0 -0 -0 -0 0 0 0 0 0 0 0 0 0 0 0 0 0 0 0 0 0 0 0 0 0
0 0 0 0 0 0 0 -0 -0 -0 -0 -0 -0 0 0 -0 0 -0 0 -0 -0 -0 0 0 0 0 0 -0 -0 -0 0 0 0 0 0 0 0 0 0 0 0 0 0
0 0 0 0 0 0 -0 0 0 -0 -0 0 0 -0 -0 -0 0 0 0 -0 -0 0 0 0 0 -0 0 0 0 0 0 0 0 0 0 0 0 0 0 0 0 0 0
-0 -0 0 0 0 0 0 0 0 -0 0 0 0 -0 0 0 0 0 0 0 0 0 0 0 0 0 0 0 0 0 0 0 0 0 0 0 0 0 0 0 0 0 0
0 0 0 0 0 0 0 0 0 -0 -0 -0 -0 0 0 0 0 0 0 0 0 0 0 0 0 0 0 0 0 0 0 0 0 0 0 0 0 0 0 0 0 0 0
0 0 0 0 0 0 0 -0 -0 0 -0 0 0 0 0 0 0 0 0 0 0 0 0 0 0 0 0 0 0 0 0 0 0 0 0 0 0 0 0 0 0 0 0
0 0 0 0 0 0 0 0 0 0 0 0 0 0 0 0 0 0 0 0 0 0 0 0 0 0 0 0 0 0 0 0 0 0 0 0 0 0 0 0 0 0 0
0 0 0 0 0 0 0 0 0 0 0 0 0 0 0 0 0 0 0 0 0 0 0 0 0 0 0 0 0 0 0 0 0 0 0 0 0 0 0 0 0 0 0
-0 0 0 0 0 0 0 0 0 0 0 0 0 0 0 0 0 0 0 0 0 0 0 0 0 0 0 0 0 0 0 0 0 0 0 0 0 0 0 0 0 0 0
0 0 0 0 0 0 0 0 0 0 0 0 0 0 0 0 0 0 0 0 0 0 0 0 0 0 0 0 0 0 0 0 0 0 0 0 0 0 0 0 0 0 0
Wind_Speed_500mb
51 42 45 47 42 41 32 23 17 10 15 16 26 19 14 10 9 3 9 5 8 12 15 14 18 22 25 25 29 31 34 38 38 38 38 36 35 37 34 35 34 34 31
47 42 43 47 42 41 30 24 15 10 7 6 4 15 14 17 3 11 5 2 3 7 12 15 18 22 26 29 32 32 33 32 34 36 35 28 30 35 34 31 38 38 34
48 28 23 34 35 36 33 25 18 11 15 16 22 24 17 12 9 2 3 6 9 12 14 18 21 26 29 27 26 29 32 30 29 31 28 10 13 15 24 21 32 30 30
34 36 60 54 43 29 29 35 17 18 27 24 20 12 9 3 3 1 7 11 14 18 22 23 23 22 19 21 23 26 29 29 28 29 32 35 13 3 7 9 14 20 24
36 27 57 66 75 21 21 26 18 27 30 26 19 8 3 4 3 5 10 14 18 20 24 22 19 14 14 17 20 22 23 25 25 25 25 32 34 30 21 18 13 7 2
40 15 32 59 64 35 30 30 24 32 34 28 19 10 5 4 5 8 11 16 18 20 19 17 15 10 11 13 12 12 8 8 13 19 23 28 31 35 35 34 23 17 10
33 14 9 13 59 44 40 38 29 37 34 29 17 10 2 1 4 8 12 14 15 15 13 13 13 7 7 7 8 10 6 3 6 13 19 24 26 24 21 23 30 23 16
27 13 26 19 22 37 44 36 31 38 35 26 17 10 7 4 7 9 12 15 16 15 19 17 18 14 8 6 8 9 7 6 2 4 11 17 19 21 21 23 24 26 19
22 27 28 36 35 42 43 26 33 33 29 23 16 9 8 8 9 14 13 15 18 22 21 20 15 14 15 12 11 8 6 6 2 2 6 9 13 17 19 23 22 20 17
21 20 25 27 28 40 27 26 34 30 23 21 15 13 13 13 14 15 13 17 18 20 22 19 16 15 15 14 14 15 18 15 9 3 1 5 8 11 16 20 20 24 21
24 25 24 31 36 34 29 33 35 22 26 21 14 14 13 14 16 15 14 18 19 21 23 24 20 17 17 18 17 18 18 16 12 10 10 6 4 3 8 14 15 17 22
26 35 26 34 40 36 36 33 32 26 30 44 12 13 11 12 13 14 14 17 19 22 24 27 23 22 22 20 19 20 20 19 16 17 12 7 8 5 2 4 7 11 9
21 22 34 43 42 32 30 30 34 29 45 22 14 12 7 5 10 9 11 15 17 19 22 23 23 24 26 25 25 25 25 24 23 19 17 19 17 12 6 1 2 5 9
19 26 33 39 35 26 17 24 29 25 37 19 8 10 9 6 1 4 6 10 12 15 19 18 20 21 21 22 25 25 24 24 25 26 25 24 22 22 19 14 8 5 2
4 15 24 33 16 22 15 20 25 24 34 22 14 15 13 13 12 2 2 3 7 11 15 15 15 17 17 20 24 24 25 25 27 28 26 25 24 23 21 19 19 17 13
9 11 8 18 24 30 30 13 20 31 32 27 22 18 14 11 10 8 6 4 2 6 11 11 10 11 13 20 23 24 23 24 25 26 26 25 25 25 23 22 20 20 17
13 6 8 16 17 7 29 27 26 34 39 33 27 23 20 16 15 14 11 10 2 4 8 8 5 6 8 16 20 21 18 18 18 21 23 23 24 24 24 22 19 18 17
24 11 26 34 33 4 24 80 43 40 46 39 37 32 28 14 15 21 18 12 4 4 3 4 3 2 4 10 15 18 17 15 16 17 18 18 19 21 22 20 17 17 15
9 11 7 21 17 15 29 37 44 47 57 39 33 29 28 17 18 24 22 10 11 11 6 5 3 4 1 4 9 14 17 15 15 14 14 14 16 18 20 19 19 18 17
16 14 5 22 22 20 26 47 52 47 40 32 25 25 24 25 25 21 21 16 18 17 11 8 4 6 6 3 1 5 10 10 13 14 13 12 12 12 15 17 17 14 14
7 17 17 15 17 13 16 15 34 39 37 31 33 22 22 23 22 22 31 23 24 21 16 11 4 6 8 8 6 7 4 1 5 7 11 13 14 13 14 14 13 12 12
12 18 18 13 13 16 25 39 42 41 38 30 33 31 26 18 14 14 23 30 22 22 20 13 10 6 9 9 9 12 14 9 5 5 9 7 8 10 13 15 17 16 14
25 19 18 10 5 14 18 33 37 36 34 30 27 24 18 13 10 16 23 27 20 22 16 15 15 8 6 11 10 9 11 12 10 8 3 6 7 11 15 20 21 20 16
12 13 11 3 6 13 19 21 21 26 29 26 21 20 16 17 20 22 21 21 20 17 18 16 15 9 10 7 7 8 11 10 9 4 3 7 9 9 14 17 17 18 16
4 7 9 10 9 8 13 14 15 15 15 18 18 16 17 19 23 25 30 22 24 18 19 18 14 12 10 7 5 4 5 6 6 9 10 8 7 9 10 11 13 14 14
5 8 11 14 11 4 8 10 13 16 16 15 16 16 18 21 23 21 22 21 18 19 15 13 9 10 10 9 8 9 8 10 13 11 9 7 8 10 11 13 10 9 9
Wind_Direction_500mb
215 216 224 233 240 244 243 224 223 272 315 298 263 239 185 154 172 341 274 276 245 251 253 261 276 276 279 274 281 283 276 263 256 255 256 259 262 255 247 223 229 246 247
219 217 223 231 240 239 239 207 220 263 292 16 169 160 172 138 300 295 265 268 277 285 282 285 290 290 286 280 282 279 275 269 257 248 252 267 267 252 240 241 239 240 253
218 221 230 235 231 233 224 199 221 204 155 124 93 113 137 175 244 302 349 324 312 303 302 303 303 301 295 288 281 277 273 269 256 242 232 222 232 213 229 241 245 236 251
106 61 28 355 343 241 219 202 220 170 155 152 128 100 117 152 251 280 332 337 329 318 315 312 305 299 292 294 290 283 275 266 252 244 232 226 235 215 180 193 199 239 244
138 94 36 322 312 302 243 240 188 167 160 166 174 179 216 229 194 326 333 329 321 324 320 315 310 305 302 299 304 300 282 255 249 245 237 232 238 244 237 194 202 246 252
158 170 357 276 245 251 249 235 192 174 167 168 178 203 228 283 326 327 323 325 327 327 326 332 331 310 309 322 316 318 322 246 245 239 239 232 234 240 242 255 225 266 252
184 228 82 108 210 246 219 211 190 175 175 172 177 173 146 89 325 324 336 348 349 343 345 4 6 352 341 345 0 9 355 301 259 246 236 228 231 240 247 233 245 242 232
171 172 176 197 205 193 202 199 182 178 175 169 164 159 126 26 344 2 1 9 15 18 24 28 26 23 11 6 3 6 5 7 273 219 209 222 229 238 245 244 245 244 228
165 175 166 182 190 189 197 189 181 182 171 160 139 121 92 64 32 16 29 27 26 32 31 29 29 31 38 35 25 13 21 26 352 218 193 203 216 224 235 233 233 227 220
174 176 184 187 179 191 187 193 187 183 167 138 120 109 90 67 37 26 26 29 37 42 38 37 39 44 45 51 46 46 52 45 51 66 191 231 229 225 226 224 227 227 232
226 215 222 190 179 182 193 190 181 173 165 119 110 117 86 64 44 36 44 47 48 45 46 45 46 51 57 62 57 55 57 53 51 54 60 76 108 201 223 218 226 229 240
260 248 230 193 183 188 191 180 174 174 180 170 151 148 123 86 66 50 55 54 47 47 48 50 55 58 59 61 63 60 57 55 55 58 61 81 77 76 112 200 219 219 221
293 240 221 191 187 184 194 164 160 180 176 168 168 159 164 151 104 75 54 50 48 46 45 47 57 64 68 69 64 58 56 56 54 55 63 69 64 64 61 337 231 208 218
279 234 213 202 188 179 173 171 163 166 187 196 192 181 193 254 183 127 60 44 46 45 44 45 48 53 61 65 62 58 58 59 61 60 61 65 64 63 62 59 68 79 213
296 248 229 207 182 151 162 177 203 194 196 210 218 204 213 236 273 287 129 55 40 39 41 46 47 47 53 67 65 61 59 61 64 68 68 68 68 67 64 60 62 60 74
3 346 245 231 183 162 169 178 195 200 210 228 219 206 227 250 292 283 206 161 54 32 30 38 44 48 56 67 64 60 61 63 66 65 63 62 64 63 59 58 58 59 67
3 27 198 195 146 213 190 234 211 197 201 211 208 213 231 263 284 265 229 176 144 345 356 9 30 44 57 65 63 58 56 59 69 69 70 68 66 62 55 50 48 49 55
341 347 166 165 192 316 327 209 226 213 222 208 214 226 231 258 281 263 262 208 207 262 327 317 308 41 69 80 66 56 52 65 72 71 68 65 62 62 56 44 40 49 59
338 8 215 196 192 213 186 196 219 225 231 224 217 230 249 250 263 262 236 212 214 242 247 275 265 273 164 87 68 58 53 61 57 61 63 55 48 44 46 41 47 50 60
235 249 252 198 217 234 224 220 231 222 228 234 225 232 249 259 264 250 223 226 229 245 232 226 230 242 234 220 156 63 64 60 55 56 46 41 33 32 23 22 30 36 51
102 149 160 188 214 178 187 220 228 218 225 247 250 255 275 279 269 238 214 225 219 258 219 225 193 275 267 252 238 218 193 95 21 27 23 29 18 6 9 13 17 12 8
88 125 144 160 199 219 200 216 213 214 233 256 249 256 271 270 249 205 201 218 214 235 217 222 220 267 284 265 253 246 232 239 275 333 357 8 12 21 32 26 20 8 356
58 67 79 83 170 223 234 221 223 241 246 257 247 248 259 247 199 185 203 207 227 215 241 228 254 258 276 287 263 248 225 243 253 286 330 32 45 46 36 30 22 19 20
55 73 77 62 301 296 285 266 249 243 248 252 243 222 215 193 177 182 200 207 212 228 238 240 257 276 285 277 277 249 241 250 246 162 120 105 83 56 33 23 21 22 25
58 54 31 8 339 303 273 262 262 255 246 230 219 217 186 173 179 186 189 203 218 219 221 244 254 272 264 247 229 205 207 162 158 141 136 118 78 48 26 1 344 341 334
20 1 354 357 358 290 254 220 219 217 211 218 205 189 178 171 166 178 194 200 213 219 226 231 246 261 224 202 194 183 159 148 137 149 145 133 101 51 35 18 3 355 350
Wind_Speed_850mb
51 42 45 47 42 41 32 23 17 10 15 16 26 19 14 10 9 3 9 5 8 12 15 14 18 22 25 25 29 31 34 38 38 38 38 36 35 37 34 35 34 34 31
47 42 43 47 42 41 30 24 15 10 7 6 4 15 14 17 3 11 5 2 3 7 12 15 18 22 26 29 32 32 33 32 34 36 35 28 30 35 34 31 38 38 34
48 28 23 34 35 36 33 25 18 11 15 16 22 24 17 12 9 2 3 6 9 12 14 18 21 26 29 27 26 29 32 30 29 31 28 10 13 15 24 21 32 30 30
34 36 60 54 43 29 29 35 17 18 27 24 20 12 9 3 3 1 7 11 14 18 22 23 23 22 19 21 23 26 29 29 28 29 32 35 13 3 7 9 14 20 24
36 27 57 66 75 21 21 26 18 27 30 26 19 8 3 4 3 5 10 14 18 20 24 22 19 14 14 17 20 22 23 25 25 25 25 32 34 30 21 18 13 7 2
40 15 32 59 64 35 30 30 24 32 34 28 19 10 5 4 5 8 11 16 18 20 19 17 15 10 11 13 12 12 8 8 13 19 23 28 31 35 35 34 23 17 10
33 14 9 13 59 44 40 38 29 37 34 29 17 10 2 1 4 8 12 14 15 15 13 13 13 7 7 7 8 10 6 3 6 13 19 24 26 24 21 23 30 23 16
27 13 26 19 22 37 44 36 31 38 35 26 17 10 7 4 7 9 12 15 16 15 19 17 18 14 8 6 8 9 7 6 2 4 11 17 19 21 21 23 24 26 19
22 27 28 36 35 42 43 26 33 33 29 23 16 9 8 8 9 14 13 15 18 22 21 20 15 14 15 12 11 8 6 6 2 2 6 9 13 17 19 23 22 20 17
21 20 25 27 28 40 27 26 34 30 23 21 15 13 13 13 14 15 13 17 18 20 22 19 16 15 15 14 14 15 18 15 9 3 1 5 8 11 16 20 20 24 21
24 25 24 31 36 34 29 33 35 22 26 21 14 14 13 14 16 15 14 18 19 21 23 24 20 17 17 18 17 18 18 16 12 10 10 6 4 3 8 14 15 17 22
26 35 26 34 40 36 36 33 32 26 30 44 12 13 11 12 13 14 14 17 19 22 24 27 23 22 22 20 19 20 20 19 16 17 12 7 8 5 2 4 7 11 9
21 22 34 43 42 32 30 30 34 29 45 22 14 12 7 5 10 9 11 15 17 19 22 23 23 24 26 25 25 25 25 24 23 19 17 19 17 12 6 1 2 5 9
19 26 33 39 35 26 17 24 29 25 37 19 8 10 9 6 1 4 6 10 12 15 19 18 20 21 21 22 25 25 24 24 25 26 25 24 22 22 19 14 8 5 2
4 15 24 33 16 22 15 20 25 24 34 22 14 15 13 13 12 2 2 3 7 11 15 15 15 17 17 20 24 24 25 25 27 28 26 25 24 23 21 19 19 17 13
9 11 8 18 24 30 30 13 20 31 32 27 22 18 14 11 10 8 6 4 2 6 11 11 10 11 13 20 23 24 23 24 25 26 26 25 25 25 23 22 20 20 17
13 6 8 16 17 7 29 27 26 34 39 33 27 23 20 16 15 14 11 10 2 4 8 8 5 6 8 16 20 21 18 18 18 21 23 23 24 24 24 22 19 18 17
24 11 26 34 33 4 24 80 43 40 46 39 37 32 28 14 15 21 18 12 4 4 3 4 3 2 4 10 15 18 17 15 16 17 18 18 19 21 22 20 17 17 15
9 11 7 21 17 15 29 37 44 47 57 39 33 29 28 17 18 24 22 10 11 11 6 5 3 4 1 4 9 14 17 15 15 14 14 14 16 18 20 19 19 18 17
16 14 5 22 22 20 26 47 52 47 40 32 25 25 24 25 25 21 21 16 18 17 11 8 4 6 6 3 1 5 10 10 13 14 13 12 12 12 15 17 17 14 14
7 17 17 15 17 13 16 15 34 39 37 31 33 22 22 23 22 22 31 23 24 21 16 11 4 6 8 8 6 7 4 1 5 7 11 13 14 13 14 14 13 12 12
12 18 18 13 13 16 25 39 42 41 38 30 33 31 26 18 14 14 23 30 22 22 20 13 10 6 9 9 9 12 14 9 5 5 9 7 8 10 13 15 17 16 14
25 19 18 10 5 14 18 33 37 36 34 30 27 24 18 13 10 16 23 27 20 22 16 15 15 8 6 11 10 9 11 12 10 8 3 6 7 11 15 20 21 20 16
12 13 11 3 6 13 19 21 21 26 29 26 21 20 16 17 20 22 21 21 20 17 18 16 15 9 10 7 7 8 11 10 9 4 3 7 9 9 14 17 17 18 16
4 7 9 10 9 8 13 14 15 15 15 18 18 16 17 19 23 25 30 22 24 18 19 18 14 12 10 7 5 4 5 6 6 9 10 8 7 9 10 11 13 14 14
5 8 11 14 11 4 8 10 13 16 16 15 16 16 18 21 23 21 22 21 18 19 15 13 9 10 10 9 8 9 8 10 13 11 9 7 8 10 11 13 10 9 9
Wind_Direction_850mb
215 216 224 233 240 244 243 224 223 272 315 298 263 239 185 154 172 341 274 276 245 251 253 261 276 276 279 274 281 283 276 263 256 255 256 259 262 255 247 223 229 246 247
219 217 223 231 240 239 239 207 220 263 292 16 169 160 172 138 300 295 265 268 277 285 282 285 290 290 286 280 282 279 275 269 257 248 252 267 267 252 240 241 239 240 253
218 221 230 235 231 233 224 199 221 204 155 124 93 113 137 175 244 302 349 324 312 303 302 303 303 301 295 288 281 277 273 269 256 242 232 222 232 213 229 241 245 236 251
106 61 28 355 343 241 219 202 220 170 155 152 128 100 117 152 251 280 332 337 329 318 315 312 305 299 292 294 290 283 275 266 252 244 232 226 235 215 180 193 199 239 244
138 94 36 322 312 302 243 240 188 167 160 166 174 179 216 229 194 326 333 329 321 324 320 315 310 305 302 299 304 300 282 255 249 245 237 232 238 244 237 194 202 246 252
158 170 357 276 245 251 249 235 192 174 167 168 178 203 228 283 326 327 323 325 327 327 326 332 331 310 309 322 316 318 322 246 245 239 239 232 234 240 242 255 225 266 252
184 228 82 108 210 246 219 211 190 175 175 172 177 173 146 89 325 324 336 348 349 343 345 4 6 352 341 345 0 9 355 301 259 246 236 228 231 240 247 233 245 242 232
171 172 176 197 205 193 202 199 182 178 175 169 164 159 126 26 344 2 1 9 15 18 24 28 26 23 11 6 3 6 5 7 273 219 209 222 229 238 245 244 245 244 228
165 175 166 182 190 189 197 189 181 182 171 160 139 121 92 64 32 16 29 27 26 32 31 29 29 31 38 35 25 13 21 26 352 218 193 203 216 224 235 233 233 227 220
174 176 184 187 179 191 187 193 187 183 167 138 120 109 90 67 37 26 26 29 37 42 38 37 39 44 45 51 46 46 52 45 51 66 191 231 229 225 226 224 227 227 232
226 215 222 190 179 182 193 190 181 173 165 119 110 117 86 64 44 36 44 47 48 45 46 45 46 51 57 62 57 55 57 53 51 54 60 76 108 201 223 218 226 229 240
260 248 230 193 183 188 191 180 174 174 180 170 151 148 123 86 66 50 55 54 47 47 48 50 55 58 59 61 63 60 57 55 55 58 61 81 77 76 112 200 219 219 221
293 240 221 191 187 184 194 164 160 180 176 168 168 159 164 151 104 75 54 50 48 46 45 47 57 64 68 69 64 58 56 56 54 55 63 69 64 64 61 337 231 208 218
279 234 213 202 188 179 173 171 163 166 187 196 192 181 193 254 183 127 60 44 46 45 44 45 48 53 61 65 62 58 58 59 61 60 61 65 64 63 62 59 68 79 213
296 248 229 207 182 151 162 177 203 194 196 210 218 204 213 236 273 287 129 55 40 39 41 46 47 47 53 67 65 61 59 61 64 68 68 68 68 67 64 60 62 60 74
3 346 245 231 183 162 169 178 195 200 210 228 219 206 227 250 292 283 206 161 54 32 30 38 44 48 56 67 64 60 61 63 66 65 63 62 64 63 59 58 58 59 67
3 27 198 195 146 213 190 234 211 197 201 211 208 213 231 263 284 265 229 176 144 345 356 9 30 44 57 65 63 58 56 59 69 69 70 68 66 62 55 50 48 49 55
341 347 166 165 192 316 327 209 226 213 222 208 214 226 231 258 281 263 262 208 207 262 327 317 308 41 69 80 66 56 52 65 72 71 68 65 62 62 56 44 40 49 59
338 8 215 196 192 213 186 196 219 225 231 224 217 230 249 250 263 262 236 212 214 242 247 275 265 273 164 87 68 58 53 61 57 61 63 55 48 44 46 41 47 50 60
235 249 252 198 217 234 224 220 231 222 228 234 225 232 249 259 264 250 223 226 229 245 232 226 230 242 234 220 156 63 64 60 55 56 46 41 33 32 23 22 30 36 51
102 149 160 188 214 178 187 220 228 218 225 247 250 255 275 279 269 238 214 225 219 258 219 225 193 275 267 252 238 218 193 95 21 27 23 29 18 6 9 13 17 12 8
88 125 144 160 199 219 200 216 213 214 233 256 249 256 271 270 249 205 201 218 214 235 217 222 220 267 284 265 253 246 232 239 275 333 357 8 12 21 32 26 20 8 356
58 67 79 83 170 223 234 221 223 241 246 257 247 248 259 247 199 185 203 207 227 215 241 228 254 258 276 287 263 248 225 243 253 286 330 32 45 46 36 30 22 19 20
55 73 77 62 301 296 285 266 249 243 248 252 243 222 215 193 177 182 200 207 212 228 238 240 257 276 285 277 277 249 241 250 246 162 120 105 83 56 33 23 21 22 25
58 54 31 8 339 303 273 262 262 255 246 230 219 217 186 173 179 186 189 203 218 219 221 244 254 272 264 247 229 205 207 162 158 141 136 118 78 48 26 1 344 341 334
20 1 354 357 358 290 254 220 219 217 211 218 205 189 178 171 166 178 194 200 213 219 226 231 246 261 224 202 194 183 159 148 137 149 145 133 101 51 35 18 3 355 350